This demonstration page uses our WeatherBlox Daily Observations layout. Learn more.

Left ArrowRight Arrow

39.92423, -83.80882

Hourly Observations for January 31, 2018

Temp ( °F °C ) Dew Point ( °F °C ) Humidity (%) Winds ( mph kmh ) Pressure ( in mb ) Visibility ( mi km ) Precip ( " mm )
12:56 am 00:56 Clear 25 -3.9 17 -8.3 72 72 SSE 10 17 30.27 1025 10 16.0934 0 0
1:56 am 01:56 Partly Cloudy 25 -3.9 17 -8.3 72 72 S 9 15 30.25 1024 10 16.0934 0 0
3:56 am 03:56 Cloudy 26 -3.3 18 -7.8 71 71 S 12 19 30.23 1024 10 16.0934 0 0
4:56 am 04:56 Cloudy 26 -3.3 18 -7.8 71 71 S 10 17 30.2 1023 10 16.0934 0 0
5:56 am 05:56 Cloudy 27 -2.8 18 -7.8 69 69 S 9 15 30.18 1022 10 16.0934 0 0
6:56 am 06:56 Partly Cloudy 27 -2.8 18 -7.8 69 69 S 12 19 30.16 1021 10 16.0934 0 0
7:56 am 07:56 Mostly Sunny 27 -2.8 19 -7.2 72 72 S 13 20 30.11 1020 10 16.0934 0 0
8:56 am 08:56 Sunny 30 -1.1 20 -6.7 66 66 S 13 20 30.06 1018 10 16.0934 0 0
9:56 am 09:56 Partly Cloudy 32 0 21 -6.1 64 64 S 13 20 30.04 1017 10 16.0934 0 0
10:56 am 10:56 Sunny 35 1.7 19 -7.2 52 52 SSW 15 24 29.98 1015 10 16.0934 0 0
11:56 am 11:56 Sunny 38 3.3 20 -6.7 48 48 SW 20 31 29.93 1013 10 16.0934 0 0
12:56 pm 12:56 Sunny 41 5 22 -5.6 47 47 SW 20 31 29.88 1012 10 16.0934 0 0
1:56 pm 13:56 Sunny 44 6.7 24 -4.4 45 45 SW 28 44 29.83 1010 10 16.0934 0 0
2:56 pm 14:56 Sunny 44 6.7 26 -3.3 49 49 SW 20 31 29.83 1010 10 16.0934 0 0
3:56 pm 15:56 Sunny 47 8.3 27 -2.8 46 46 WSW 20 31 29.82 1010 10 16.0934 0 0
4:56 pm 16:56 Sunny 45 7.2 28 -2.2 52 52 SW 8 13 29.83 1010 10 16.0934 0 0
5:56 pm 17:56 Clear 43 6.1 27 -2.8 53 53 SW 9 15 29.83 1010 10 16.0934 0 0
6:56 pm 18:56 Clear 40 4.4 27 -2.8 60 60 WSW 7 11 29.85 1011 10 16.0934 0 0
7:56 pm 19:56 Clear 41 5 26 -3.3 55 55 WSW 6 9 29.86 1011 10 16.0934 0 0
8:56 pm 20:56 Clear 39 3.9 27 -2.8 62 62 W 6 9 29.87 1011 10 16.0934 0 0
9:56 pm 21:56 Clear 39 3.9 29 -1.7 67 67 WSW 9 15 29.89 1012 10 16.0934 0 0
10:56 pm 22:56 Clear 40 4.4 29 -1.7 65 65 WSW 9 15 29.88 1012 10 16.0934 0 0
11:56 pm 23:56 Clear 41 5 29 -1.7 62 62 SW 10 17 29.87 1012 10 16.0934 0 0

Powered by AerisWeather